When you browse on this site, cookies collect data to enhance your experience and personalize the content and advertising you see.
Visit our Privacy Policy to learn more. By continuing to use the site, you agree to this use of cookies and data.
  • In Romania
  • List of Countries
  • For 7 days
  • Water Temperature
  • Satellite Maps
  • Weather Map
  • Weather Widgets
  • user-avatar
    Login

    Hourly Weather Arhus

    Today, 27 May, Monday

    Time Temperature Precipitation Wind Pressure Humidity
    00:00 +11°C° 0.1 mm 3 mps 748 mmHg 95%
    01:00 +11°C° 0.1 mm 4 mps 748 mmHg 96%
    02:00 +11°C° 0.1 mm 4 mps 748 mmHg 96%
    03:00 +10°C° 0.1 mm 4 mps 748 mmHg 95%
    04:00 +10°C° 0.1 mm 4 mps 748 mmHg 95%
    05:00 +10°C° 0 mm 4 mps 748 mmHg 93%
    06:00 +10°C° 0 mm 4 mps 748 mmHg 90%
    07:00 +10°C° 0 mm 4 mps 748 mmHg 87%
    08:00 +10°C° 0.1 mm 5 mps 749 mmHg 85%
    09:00 +12°C° 0.1 mm 5 mps 749 mmHg 83%
    10:00 +13°C° 0.1 mm 6 mps 749 mmHg 80%
    11:00 +13°C° 0.2 mm 6 mps 749 mmHg 76%
    12:00 +14°C° 0.2 mm 7 mps 749 mmHg 72%
    13:00 +15°C° 0.2 mm 7 mps 749 mmHg 68%
    14:00 +14°C° 0.2 mm 7 mps 749 mmHg 69%
    15:00 +14°C° 0.2 mm 7 mps 749 mmHg 70%
    16:00 +14°C° 0.2 mm 7 mps 749 mmHg 72%
    17:00 +12°C° 0.1 mm 7 mps 749 mmHg 75%
    18:00 +11°C° 0.1 mm 7 mps 749 mmHg 78%
    19:00 +11°C° 0.1 mm 6 mps 748 mmHg 82%
    20:00 +10°C° 0.1 mm 6 mps 748 mmHg 83%
    21:00 +10°C° 0.1 mm 6 mps 749 mmHg 84%
    22:00 +9°C° 0.1 mm 7 mps 749 mmHg 86%
    23:00 +8°C° 0 mm 7 mps 749 mmHg 84%

    Tomorrow, 28 May, Tuesday

    Time Temperature Precipitation Wind Pressure Humidity
    00:00 +7°C° 0 mm 6 mps 749 mmHg 83%
    01:00 +5°C° 0 mm 6 mps 749 mmHg 81%
    02:00 +5°C° 0 mm 6 mps 749 mmHg 82%
    03:00 +4°C° 0 mm 6 mps 749 mmHg 83%
    04:00 +3°C° 0 mm 6 mps 750 mmHg 83%
    05:00 +4°C° 0 mm 6 mps 750 mmHg 79%
    06:00 +5°C° 0 mm 7 mps 750 mmHg 75%
    07:00 +6°C° 0 mm 7 mps 751 mmHg 71%
    08:00 +8°C° 0 mm 7 mps 751 mmHg 68%
    09:00 +8°C° 0 mm 7 mps 752 mmHg 65%
    10:00 +8°C° 0 mm 7 mps 752 mmHg 63%
    11:00 +9°C° 0 mm 7 mps 752 mmHg 61%
    12:00 +10°C° 0 mm 7 mps 753 mmHg 60%
    13:00 +10°C° 0 mm 8 mps 753 mmHg 59%
    14:00 +10°C° 0 mm 8 mps 753 mmHg 59%
    15:00 +10°C° 0 mm 8 mps 754 mmHg 59%
    16:00 +10°C° 0 mm 8 mps 754 mmHg 59%
    17:00 +9°C° 0 mm 7 mps 754 mmHg 61%
    18:00 +8°C° 0 mm 7 mps 755 mmHg 64%
    19:00 +8°C° 0 mm 6 mps 755 mmHg 66%
    20:00 +5°C° 0 mm 6 mps 756 mmHg 67%
    21:00 +5°C° 0 mm 5 mps 756 mmHg 67%
    22:00 +3°C° 0 mm 5 mps 757 mmHg 68%
    23:00 +3°C° 0 mm 5 mps 757 mmHg 69%

    Day after tomorrow, 29 May, Wednesday

    Time Temperature Precipitation Wind Pressure Humidity
    00:00 +2°C° 0 mm 5 mps 757 mmHg 71%
    01:00 +2°C° 0 mm 5 mps 758 mmHg 72%
    02:00 +2°C° 0 mm 5 mps 758 mmHg 74%
    03:00 +3°C° 0 mm 4 mps 758 mmHg 76%
    04:00 +1°C° 0 mm 4 mps 759 mmHg 77%
    05:00 +4°C° 0 mm 4 mps 759 mmHg 73%
    06:00 +5°C° 0 mm 4 mps 759 mmHg 70%
    07:00 +7°C° 0 mm 5 mps 760 mmHg 66%
    08:00 +8°C° 0 mm 4 mps 760 mmHg 62%
    09:00 +10°C° 0 mm 4 mps 761 mmHg 59%
    10:00 +11°C° 0 mm 3 mps 761 mmHg 56%
    11:00 +11°C° 0 mm 3 mps 761 mmHg 56%
    12:00 +11°C° 0 mm 3 mps 761 mmHg 57%
    13:00 +12°C° 0 mm 2 mps 762 mmHg 57%
    14:00 +12°C° 0 mm 2 mps 762 mmHg 57%
    15:00 +11°C° 0 mm 3 mps 762 mmHg 57%
    16:00 +11°C° 0 mm 3 mps 762 mmHg 58%
    17:00 +11°C° 0 mm 3 mps 761 mmHg 61%
    18:00 +11°C° 0 mm 3 mps 761 mmHg 65%
    19:00 +10°C° 0 mm 3 mps 761 mmHg 69%
    20:00 +10°C° 0 mm 3 mps 761 mmHg 71%
    21:00 +8°C° 0 mm 4 mps 760 mmHg 74%
    22:00 +7°C° 0 mm 5 mps 760 mmHg 77%
    23:00 +7°C° 0.1 mm 5 mps 760 mmHg 78%

    30 May, Thursday

    Time Temperature Precipitation Wind Pressure Humidity
    00:00 +7°C° 0.1 mm 6 mps 759 mmHg 80%
    01:00 +8°C° 0.1 mm 7 mps 758 mmHg 81%
    02:00 +8°C° 1 mm 7 mps 758 mmHg 85%
    03:00 +7°C° 1 mm 8 mps 757 mmHg 88%
    04:00 +7°C° 1 mm 9 mps 756 mmHg 92%
    05:00 +9°C° 0.3 mm 8 mps 756 mmHg 93%
    06:00 +9°C° 0.3 mm 7 mps 755 mmHg 93%
    07:00 +10°C° 0.3 mm 6 mps 755 mmHg 94%
    08:00 +11°C° 0.1 mm 6 mps 755 mmHg 88%
    09:00 +13°C° 0.1 mm 6 mps 755 mmHg 82%
    10:00 +14°C° 0.1 mm 5 mps 755 mmHg 77%
    11:00 +15°C° 0 mm 6 mps 756 mmHg 71%
    12:00 +15°C° 0 mm 6 mps 756 mmHg 65%
    13:00 +16°C° 0 mm 6 mps 757 mmHg 59%
    14:00 +16°C° 0 mm 6 mps 757 mmHg 59%
    15:00 +15°C° 0 mm 6 mps 758 mmHg 59%
    16:00 +15°C° 0 mm 5 mps 758 mmHg 59%
    17:00 +14°C° 0 mm 4 mps 758 mmHg 62%
    18:00 +13°C° 0 mm 3 mps 758 mmHg 64%
    19:00 +13°C° 0 mm 2 mps 759 mmHg 67%
    20:00 +11°C° 0.6 mm 3 mps 758 mmHg 75%
    21:00 +9°C° 0.6 mm 3 mps 758 mmHg 82%
    22:00 +8°C° 0.6 mm 3 mps 758 mmHg 90%
    23:00 +7°C° 2.2 mm 4 mps 758 mmHg 91%

    31 May, Friday

    Time Temperature Precipitation Wind Pressure Humidity
    00:00 +6°C° 2.2 mm 4 mps 758 mmHg 92%
    01:00 +5°C° 2.2 mm 5 mps 757 mmHg 93%
    02:00 +6°C° 0.6 mm 5 mps 757 mmHg 93%
    03:00 +6°C° 0.6 mm 5 mps 758 mmHg 92%
    04:00 +6°C° 0.6 mm 5 mps 758 mmHg 92%
    05:00 +6°C° 0 mm 5 mps 758 mmHg 88%
    06:00 +7°C° 0 mm 6 mps 759 mmHg 83%
    07:00 +8°C° 0 mm 6 mps 760 mmHg 79%
    08:00 +9°C° 0 mm 6 mps 760 mmHg 72%
    09:00 +10°C° 0 mm 5 mps 761 mmHg 64%
    10:00 +12°C° 0 mm 5 mps 762 mmHg 57%
    11:00 +13°C° 0 mm 5 mps 762 mmHg 56%
    12:00 +13°C° 0 mm 5 mps 763 mmHg 54%
    13:00 +14°C° 0 mm 5 mps 763 mmHg 53%
    14:00 +14°C° 0 mm 5 mps 764 mmHg 54%
    15:00 +14°C° 0 mm 5 mps 764 mmHg 56%
    16:00 +14°C° 0 mm 5 mps 764 mmHg 57%
    17:00 +13°C° 0 mm 5 mps 764 mmHg 62%
    18:00 +12°C° 0 mm 5 mps 765 mmHg 67%
    19:00 +10°C° 0 mm 5 mps 765 mmHg 72%
    20:00 +9°C° 0 mm 5 mps 765 mmHg 74%
    21:00 +7°C° 0 mm 5 mps 766 mmHg 76%
    22:00 +6°C° 0 mm 5 mps 766 mmHg 79%
    23:00 +5°C° 0 mm 5 mps 766 mmHg 80%

    1 June, Saturday

    Time Temperature Precipitation Wind Pressure Humidity
    00:00 +5°C° 0 mm 5 mps 766 mmHg 82%
    01:00 +3°C° 0 mm 5 mps 766 mmHg 84%
    02:00 +3°C° 0 mm 5 mps 767 mmHg 85%
    03:00 +3°C° 0 mm 5 mps 767 mmHg 87%
    04:00 +3°C° 0 mm 5 mps 767 mmHg 89%
    05:00 +5°C° 0 mm 5 mps 767 mmHg 84%
    06:00 +7°C° 0 mm 5 mps 767 mmHg 80%
    07:00 +8°C° 0 mm 6 mps 767 mmHg 76%
    08:00 +9°C° 0 mm 5 mps 768 mmHg 73%
    09:00 +10°C° 0 mm 5 mps 768 mmHg 70%
    10:00 +13°C° 0 mm 4 mps 768 mmHg 68%
    11:00 +13°C° 0 mm 4 mps 768 mmHg 64%
    12:00 +14°C° 0 mm 4 mps 768 mmHg 60%
    13:00 +16°C° 0 mm 3 mps 768 mmHg 57%
    14:00 +15°C° 0 mm 4 mps 768 mmHg 59%
    15:00 +15°C° 0 mm 4 mps 768 mmHg 61%
    16:00 +15°C° 0 mm 4 mps 768 mmHg 62%
    17:00 +14°C° 0 mm 4 mps 768 mmHg 68%
    18:00 +13°C° 0 mm 3 mps 767 mmHg 73%
    19:00 +13°C° 0 mm 2 mps 767 mmHg 78%
    20:00 +12°C° 0 mm 3 mps 767 mmHg 77%
    21:00 +11°C° 0 mm 4 mps 767 mmHg 77%
    22:00 +11°C° 0 mm 4 mps 767 mmHg 76%
    23:00 +10°C° 0 mm 5 mps 767 mmHg 75%
    Show more